,,PA_Meas_PMT16A,,PR_Meas_QMR101_102,,RH_Meas_QMH101,,SR_Meas_QMS101,,TA_Meas_QMH101,,GenWind,,GenWind,
time,status,PA,status,PR,status,RH,status,SR,status,TA,status,DirAvg,status,SpdAvg,
2010-10-03, 00:00:04,VALID,916.037,VALID,0,VALID,97.473,VALID,0.107441,VALID,19.8183,VALID,41,VALID,1.06172,
2010-10-03, 00:01:04,VALID,916.037,VALID,0,VALID,97.4959,VALID,0.107441,VALID,19.8378,VALID,41,VALID,0.625781,
2010-10-03, 00:02:04,VALID,915.988,VALID,0,VALID,97.4882,VALID,0,VALID,19.8183,VALID,41,VALID,1.02891,
2010-10-03, 00:03:04,VALID,915.971,VALID,0,VALID,97.4806,VALID,0.107441,VALID,19.7988,VALID,40,VALID,1.0293,
2010-10-03, 00:04:04,VALID,915.978,VALID,0,VALID,97.4882,VALID,0,VALID,19.7793,VALID,41,VALID,0.708594,
2010-10-03, 00:05:04,VALID,915.995,VALID,0,VALID,97.4959,VALID,0.107441,VALID,19.8183,VALID,41,VALID,0,
2010-10-03, 00:06:04,VALID,915.948,VALID,0,VALID,97.5035,VALID,0.107441,VALID,19.8183,VALID,40,VALID,0.785156,
2010-10-03, 00:07:04,VALID,915.917,VALID,0.2,VALID,97.4959,VALID,0.107441,VALID,19.7988,VALID,41,VALID,0.666016,
2010-10-03, 00:08:04,VALID,915.906,VALID,0,VALID,97.5035,VALID,0,VALID,19.7793,VALID,41,VALID,0.767578,
2010-10-03, 00:09:04,VALID,915.91,VALID,0,VALID,97.5187,VALID,0.107441,VALID,19.7988,VALID,41,VALID,0.787109,
2010-10-03, 00:10:04,VALID,915.891,VALID,0,VALID,97.4882,VALID,0.107441,VALID,19.7988,VALID,41,VALID,0.787891,
2010-10-03, 00:11:04,VALID,915.881,VALID,0,VALID,97.4959,VALID,0.107441,VALID,19.8183,VALID,41,VALID,0.502734,
2010-10-03, 00:12:04,VALID,915.87,VALID,0,VALID,97.4806,VALID,0,VALID,19.8183,VALID,41,VALID,0.430859,
2010-10-03, 00:13:04,VALID,915.81,VALID,0,VALID,97.5187,VALID,0,VALID,19.7988,VALID,41,VALID,0.83125,
2010-10-03, 00:14:04,VALID,915.823,VALID,0,VALID,97.5035,VALID,0,VALID,19.7988,VALID,41,VALID,1.11367,
2010-10-03, 00:15:04,VALID,915.82,VALID,0,VALID,97.5035,VALID,0,VALID,19.7988,VALID,40,VALID,1.0418,
2010-10-03, 00:16:04,VALID,915.81,VALID,0,VALID,97.5111,VALID,0,VALID,19.7988,VALID,41,VALID,0.583984,
2010-10-03, 00:17:04,VALID,915.809,VALID,0,VALID,97.5111,VALID,0,VALID,19.8378,VALID,41,VALID,0.335938,
2010-10-03, 00:18:04,VALID,915.777,VALID,0,VALID,97.5035,VALID,0,VALID,19.8183,VALID,41,VALID,1.06289,
2010-10-03, 00:19:04,VALID,915.783,VALID,0,VALID,97.5111,VALID,0,VALID,19.7793,VALID,41,VALID,1.03711,
2010-10-03, 00:20:04,VALID,915.74,VALID,0,VALID,97.5111,VALID,0,VALID,19.7988,VALID,41,VALID,1.19492,
2010-10-03, 00:21:04,VALID,915.696,VALID,0,VALID,97.5111,VALID,0,VALID,19.7793,VALID,41,VALID,0.947266,
2010-10-03, 00:22:04,VALID,915.702,VALID,0,VALID,97.4959,VALID,0,VALID,19.7793,VALID,41,VALID,0.880859,
2010-10-03, 00:23:04,VALID,915.702,VALID,0,VALID,97.5187,VALID,0,VALID,19.8183,VALID,41,VALID,0.219141,
2010-10-03, 00:24:04,VALID,915.696,VALID,0,VALID,97.5035,VALID,0.107441,VALID,19.8183,VALID,41,VALID,0.239844,
2010-10-03, 00:25:04,VALID,915.681,VALID,0,VALID,97.5035,VALID,0,VALID,19.7793,VALID,41,VALID,0.411719,
2010-10-03, 00:26:04,VALID,915.683,VALID,0,VALID,97.5035,VALID,0.107441,VALID,19.7793,VALID,41,VALID,0.471094,
2010-10-03, 00:27:04,VALID,915.651,VALID,0,VALID,97.5187,VALID,0,VALID,19.7808,VALID,41,VALID,0,
2010-10-03, 00:28:04,VALID,915.637,VALID,0,VALID,97.5187,VALID,0,VALID,19.7613,VALID,41,VALID,0.301953,
2010-10-03, 00:29:04,VALID,915.643,VALID,0,VALID,97.5111,VALID,0,VALID,19.7223,VALID,41,VALID,1.0707,
2010-10-03, 00:30:04,VALID,915.608,VALID,0,VALID,97.5035,VALID,0,VALID,19.7223,VALID,41,VALID,1.01445,
2010-10-03, 00:31:04,VALID,915.599,VALID,0,VALID,97.534,VALID,0,VALID,19.7223,VALID,41,VALID,1.16367,
2010-10-03, 00:32:04,VALID,915.578,VALID,0,VALID,97.5187,VALID,0,VALID,19.7223,VALID,41,VALID,0.865625,
2010-10-03, 00:33:04,VALID,915.555,VALID,0,VALID,97.5187,VALID,0,VALID,19.7223,VALID,41,VALID,0.602344,
2010-10-03, 00:34:04,VALID,915.538,VALID,0,VALID,97.5035,VALID,0,VALID,19.7223,VALID,40,VALID,0.919531,
2010-10-03, 00:35:04,VALID,915.54,VALID,0,VALID,97.5264,VALID,0,VALID,19.7028,VALID,41,VALID,0.921875,
2010-10-03, 00:36:04,VALID,915.511,VALID,0,VALID,97.5187,VALID,0,VALID,19.6818,VALID,41,VALID,0.816406,
2010-10-03, 00:37:04,VALID,915.494,VALID,0,VALID,97.5035,VALID,0,VALID,19.6818,VALID,41,VALID,0.845312,
2010-10-03, 00:38:04,VALID,915.5,VALID,0,VALID,97.5264,VALID,0,VALID,19.7223,VALID,41,VALID,0.732422,
2010-10-03, 00:39:04,VALID,915.469,VALID,0,VALID,97.5264,VALID,0,VALID,19.7028,VALID,41,VALID,0.356641,
2010-10-03, 00:40:04,VALID,915.415,VALID,0,VALID,97.5187,VALID,0,VALID,19.7223,VALID,41,VALID,0.766797,
2010-10-03, 00:41:04,VALID,915.419,VALID,0,VALID,97.5416,VALID,0,VALID,19.7223,VALID,40,VALID,0.875,
2010-10-03, 00:42:04,VALID,915.416,VALID,0,VALID,97.534,VALID,0,VALID,19.7013,VALID,40,VALID,0.954297,
2010-10-03, 00:43:04,VALID,915.393,VALID,0,VALID,97.5187,VALID,0,VALID,19.7223,VALID,40,VALID,0.294531,
2010-10-03, 00:44:04,VALID,915.398,VALID,0,VALID,97.534,VALID,0,VALID,19.7223,VALID,41,VALID,0.707812,
2010-10-03, 00:45:04,VALID,915.399,VALID,0,VALID,97.534,VALID,0,VALID,19.6818,VALID,40,VALID,0.707422,
2010-10-03, 00:46:04,VALID,915.395,VALID,0,VALID,97.5569,VALID,0,VALID,19.6833,VALID,40,VALID,0.902734,
2010-10-03, 00:47:04,VALID,915.359,VALID,0,VALID,97.5264,VALID,0,VALID,19.6623,VALID,40,VALID,1.00469,
2010-10-03, 00:48:04,VALID,915.375,VALID,0,VALID,97.5264,VALID,0,VALID,19.6623,VALID,40,VALID,0.493359,
2010-10-03, 00:49:04,VALID,915.356,VALID,0,VALID,97.5187,VALID,0,VALID,19.7028,VALID,40,VALID,0.301172,
2010-10-03, 00:50:04,VALID,915.333,VALID,0,VALID,97.5492,VALID,0,VALID,19.7028,VALID,40,VALID,0.471484,
2010-10-03, 00:51:04,VALID,915.346,VALID,0,VALID,97.5264,VALID,0,VALID,19.7028,VALID,40,VALID,1.06211,
2010-10-03, 00:52:04,VALID,915.331,VALID,0,VALID,97.534,VALID,0,VALID,19.6833,VALID,40,VALID,0.871484,
2010-10-03, 00:53:04,VALID,915.339,VALID,0,VALID,97.5492,VALID,0,VALID,19.6638,VALID,40,VALID,0.872266,
2010-10-03, 00:54:04,VALID,915.316,VALID,0,VALID,97.5264,VALID,0,VALID,19.6638,VALID,40,VALID,0.675391,
2010-10-03, 00:55:04,VALID,915.327,VALID,0,VALID,97.5111,VALID,0,VALID,19.6833,VALID,40,VALID,0.828125,
2010-10-03, 00:56:04,VALID,915.291,VALID,0,VALID,97.534,VALID,0,VALID,19.6638,VALID,40,VALID,0.936328,
2010-10-03, 00:57:04,VALID,915.265,VALID,0,VALID,97.5416,VALID,0,VALID,19.6623,VALID,40,VALID,0.884766,
2010-10-03, 00:58:04,VALID,915.272,VALID,0,VALID,97.5187,VALID,0,VALID,19.6818,VALID,40,VALID,0.642969,
2010-10-03, 00:59:04,VALID,915.24,VALID,0,VALID,97.534,VALID,0,VALID,19.6818,VALID,40,VALID,0.721875,
2010-10-03, 01:00:04,VALID,915.238,VALID,0,VALID,97.5569,VALID,0,VALID,19.6818,VALID,40,VALID,0.345703,
2010-10-03, 01:01:04,VALID,915.199,VALID,0,VALID,97.534,VALID,0.107441,VALID,19.6608,VALID,40,VALID,0.718359,
2010-10-03, 01:02:04,VALID,915.212,VALID,0,VALID,97.5264,VALID,0,VALID,19.6818,VALID,40,VALID,0.493359,
2010-10-03, 01:03:04,VALID,915.188,VALID,0,VALID,97.534,VALID,0,VALID,19.7208,VALID,40,VALID,0.145313,
2010-10-03, 01:04:04,VALID,915.175,VALID,0,VALID,97.534,VALID,0.107441,VALID,19.6998,VALID,40,VALID,0.528516,
2010-10-03, 01:05:04,VALID,915.153,VALID,0,VALID,97.534,VALID,0,VALID,19.7013,VALID,40,VALID,0.496484,
2010-10-03, 01:06:04,VALID,915.148,VALID,0,VALID,97.5187,VALID,0.107441,VALID,19.7208,VALID,40,VALID,0.521094,
2010-10-03, 01:07:05,VALID,915.121,VALID,0,VALID,97.5416,VALID,0.107441,VALID,19.7208,VALID,40,VALID,0.720312,
2010-10-03, 01:08:04,VALID,915.118,VALID,0,VALID,97.5187,VALID,0,VALID,19.7208,VALID,40,VALID,0.439063,
2010-10-03, 01:09:05,VALID,915.117,VALID,0,VALID,97.5416,VALID,0,VALID,19.7208,VALID,40,VALID,0.571484,
2010-10-03, 01:10:05,VALID,915.11,VALID,0,VALID,97.5416,VALID,0.107441,VALID,19.7403,VALID,40,VALID,0.643359,
2010-10-03, 01:11:05,VALID,915.086,VALID,0,VALID,97.534,VALID,0,VALID,19.7403,VALID,40,VALID,0.00429688,
2010-10-03, 01:12:05,VALID,915.063,VALID,0,VALID,97.5264,VALID,0,VALID,19.7418,VALID,40,VALID,0.688672,
2010-10-03, 01:13:05,VALID,915.106,VALID,0,VALID,97.5187,VALID,0,VALID,19.7223,VALID,40,VALID,0.351953,
2010-10-03, 01:14:05,VALID,915.06,VALID,0,VALID,97.5264,VALID,0,VALID,19.7028,VALID,40,VALID,0.175,
2010-10-03, 01:15:05,VALID,915.051,VALID,0,VALID,97.534,VALID,0,VALID,19.7028,VALID,41,VALID,0.721484,
2010-10-03, 01:16:05,VALID,915.036,VALID,0,VALID,97.5264,VALID,0,VALID,19.7223,VALID,40,VALID,0.801953,
2010-10-03, 01:17:05,VALID,915.023,VALID,0,VALID,97.5492,VALID,0,VALID,19.7238,VALID,40,VALID,0.851953,
2010-10-03, 01:18:05,VALID,915.007,VALID,0,VALID,97.534,VALID,0,VALID,19.6818,VALID,41,VALID,0.64375,
2010-10-03, 01:19:05,VALID,915.036,VALID,0,VALID,97.5264,VALID,0,VALID,19.7223,VALID,40,VALID,0.518359,
2010-10-03, 01:20:05,VALID,914.988,VALID,0,VALID,97.5187,VALID,0,VALID,19.7628,VALID,40,VALID,0.432422,
2010-10-03, 01:21:05,VALID,914.977,VALID,0,VALID,97.5264,VALID,0,VALID,19.7418,VALID,40,VALID,0.589844,
2010-10-03, 01:22:05,VALID,914.951,VALID,0,VALID,97.5416,VALID,0,VALID,19.7418,VALID,40,VALID,0.598437,
2010-10-03, 01:23:05,VALID,914.938,VALID,0,VALID,97.5264,VALID,0,VALID,19.7418,VALID,40,VALID,0.436719,
2010-10-03, 01:24:05,VALID,914.926,VALID,0,VALID,97.5264,VALID,0,VALID,19.7028,VALID,40,VALID,0.638672,
2010-10-03, 01:25:05,VALID,914.908,VALID,0,VALID,97.5187,VALID,0,VALID,19.7028,VALID,40,VALID,0.461328,
2010-10-03, 01:26:05,VALID,914.889,VALID,0,VALID,97.5264,VALID,0,VALID,19.6833,VALID,41,VALID,0.802734,
2010-10-03, 01:27:05,VALID,914.886,VALID,0,VALID,97.534,VALID,0,VALID,19.7028,VALID,41,VALID,1.13594,
2010-10-03, 01:28:05,VALID,914.904,VALID,0,VALID,97.5264,VALID,0,VALID,19.7223,VALID,47,VALID,0.701563,
2010-10-03, 01:29:05,VALID,914.925,VALID,0,VALID,97.5187,VALID,0,VALID,19.7418,VALID,46,VALID,0.816406,
2010-10-03, 01:30:05,VALID,914.909,VALID,0,VALID,97.5264,VALID,0,VALID,19.7628,VALID,46,VALID,0.223047,
2010-10-03, 01:31:05,VALID,914.887,VALID,0,VALID,97.5264,VALID,0,VALID,19.7418,VALID,46,VALID,0.671094,
2010-10-03, 01:32:05,VALID,914.886,VALID,0,VALID,97.534,VALID,0,VALID,19.7418,VALID,46,VALID,0.558984,
2010-10-03, 01:33:05,VALID,914.899,VALID,0,VALID,97.5492,VALID,0,VALID,19.7418,VALID,47,VALID,0.558594,
2010-10-03, 01:34:05,VALID,914.898,VALID,0,VALID,97.5492,VALID,0,VALID,19.7418,VALID,47,VALID,0.387109,
2010-10-03, 01:35:05,VALID,914.894,VALID,0,VALID,97.534,VALID,0,VALID,19.7613,VALID,46,VALID,0,
2010-10-03, 01:36:05,VALID,914.873,VALID,0,VALID,97.5416,VALID,0,VALID,19.7808,VALID,46,VALID,0.121094,
2010-10-03, 01:37:05,VALID,914.835,VALID,0,VALID,97.5416,VALID,0,VALID,19.7418,VALID,46,VALID,0.720312,
2010-10-03, 01:38:05,VALID,914.87,VALID,0,VALID,97.5416,VALID,0,VALID,19.7613,VALID,46,VALID,0.626562,
2010-10-03, 01:39:05,VALID,914.842,VALID,0,VALID,97.5416,VALID,0,VALID,19.7613,VALID,46,VALID,0.115234,
2010-10-03, 01:40:05,VALID,914.837,VALID,0,VALID,97.5492,VALID,0,VALID,19.7808,VALID,47,VALID,0.220313,
2010-10-03, 01:41:05,VALID,914.83,VALID,0,VALID,97.5264,VALID,0,VALID,19.7418,VALID,46,VALID,0.418359,
2010-10-03, 01:42:05,VALID,914.829,VALID,0,VALID,97.5416,VALID,0,VALID,19.7223,VALID,47,VALID,0.703125,
2010-10-03, 01:43:05,VALID,914.817,VALID,0,VALID,97.5492,VALID,0,VALID,19.7223,VALID,47,VALID,0.698828,
2010-10-03, 01:44:05,VALID,914.798,VALID,0,VALID,97.5416,VALID,0,VALID,19.7418,VALID,46,VALID,0.466797,
2010-10-03, 01:45:05,VALID,914.791,VALID,0,VALID,97.5569,VALID,0,VALID,19.7613,VALID,47,VALID,0,
2010-10-03, 01:46:05,VALID,914.779,VALID,0,VALID,97.5416,VALID,0,VALID,19.7808,VALID,47,VALID,0.327734,
2010-10-03, 01:47:05,VALID,914.779,VALID,0,VALID,97.534,VALID,0,VALID,19.7613,VALID,47,VALID,0,
2010-10-03, 01:48:05,VALID,914.769,VALID,0,VALID,97.5492,VALID,0,VALID,19.7223,VALID,46,VALID,0.675781,
2010-10-03, 01:49:05,VALID,914.753,VALID,0,VALID,97.5569,VALID,0,VALID,19.7613,VALID,46,VALID,0,
2010-10-03, 01:50:05,VALID,914.721,VALID,0,VALID,97.5569,VALID,0,VALID,19.7418,VALID,46,VALID,0.0835937,
2010-10-03, 01:51:05,VALID,914.718,VALID,0,VALID,97.534,VALID,0,VALID,19.7418,VALID,46,VALID,0.246875,
2010-10-03, 01:52:05,VALID,914.684,VALID,0,VALID,97.5416,VALID,0,VALID,19.7418,VALID,46,VALID,0.239453,
2010-10-03, 01:53:05,VALID,914.681,VALID,0,VALID,97.5569,VALID,0,VALID,19.7418,VALID,46,VALID,0.330469,
2010-10-03, 01:54:05,VALID,914.675,VALID,0,VALID,97.5416,VALID,0,VALID,19.7418,VALID,46,VALID,0.36875,
2010-10-03, 01:55:05,VALID,914.666,VALID,0,VALID,97.5264,VALID,0,VALID,19.7223,VALID,46,VALID,0.0679687,
2010-10-03, 01:56:05,VALID,914.643,VALID,0,VALID,97.5416,VALID,0,VALID,19.7223,VALID,46,VALID,0.600391,
2010-10-03, 01:57:05,VALID,914.671,VALID,0,VALID,97.5416,VALID,0,VALID,19.7403,VALID,46,VALID,0.141016,
2010-10-03, 01:58:05,VALID,914.627,VALID,0,VALID,97.5645,VALID,0,VALID,19.7403,VALID,46,VALID,0.358203,
2010-10-03, 01:59:05,VALID,914.635,VALID,0,VALID,97.5492,VALID,0,VALID,19.7013,VALID,46,VALID,0.371875,
2010-10-03, 02:00:05,VALID,914.64,VALID,0,VALID,97.5569,VALID,0,VALID,19.6818,VALID,46,VALID,0.584766,
2010-10-03, 02:01:05,VALID,914.631,VALID,0,VALID,97.5569,VALID,0,VALID,19.6818,VALID,46,VALID,0.401953,
2010-10-03, 02:02:05,VALID,914.609,VALID,0,VALID,97.5645,VALID,0,VALID,19.7013,VALID,46,VALID,0.620313,
2010-10-03, 02:03:05,VALID,914.613,VALID,0,VALID,97.5492,VALID,0,VALID,19.7013,VALID,46,VALID,0,
2010-10-03, 02:04:05,VALID,914.595,VALID,0,VALID,97.5645,VALID,0,VALID,19.7208,VALID,46,VALID,0,
2010-10-03, 02:05:05,VALID,914.631,VALID,0,VALID,97.5797,VALID,0.107441,VALID,19.7208,VALID,46,VALID,0.0347656,
2010-10-03, 02:06:05,VALID,914.602,VALID,0,VALID,97.5721,VALID,0,VALID,19.7013,VALID,46,VALID,0.395703,
2010-10-03, 02:07:05,VALID,914.592,VALID,0,VALID,97.5569,VALID,0,VALID,19.7208,VALID,46,VALID,0.480469,
2010-10-03, 02:08:05,VALID,914.591,VALID,0,VALID,97.5492,VALID,0.107441,VALID,19.7208,VALID,46,VALID,0,
2010-10-03, 02:09:05,VALID,914.548,VALID,0,VALID,97.5492,VALID,0,VALID,19.7403,VALID,46,VALID,0,
2010-10-03, 02:10:05,VALID,914.582,VALID,0,VALID,97.5645,VALID,0,VALID,19.7208,VALID,46,VALID,0.262109,
2010-10-03, 02:11:05,VALID,914.547,VALID,0,VALID,97.5569,VALID,0,VALID,19.7208,VALID,46,VALID,0,
2010-10-03, 02:12:05,VALID,914.516,VALID,0,VALID,97.5645,VALID,0,VALID,19.6803,VALID,46,VALID,0.680469,
2010-10-03, 02:13:05,VALID,914.528,VALID,0,VALID,97.5645,VALID,0,VALID,19.7013,VALID,46,VALID,0.568359,
2010-10-03, 02:14:05,VALID,914.499,VALID,0,VALID,97.5645,VALID,0,VALID,19.7013,VALID,46,VALID,0,
2010-10-03, 02:15:05,VALID,914.497,VALID,0,VALID,97.5873,VALID,0,VALID,19.7013,VALID,46,VALID,0.242969,
2010-10-03, 02:16:05,VALID,914.513,VALID,0,VALID,97.5797,VALID,0,VALID,19.7013,VALID,46,VALID,0.361328,
2010-10-03, 02:17:05,VALID,914.478,VALID,0,VALID,97.5645,VALID,0,VALID,19.7013,VALID,46,VALID,0.354688,
2010-10-03, 02:18:05,VALID,914.467,VALID,0,VALID,97.5645,VALID,0,VALID,19.7013,VALID,46,VALID,0.161719,
2010-10-03, 02:19:05,VALID,914.489,VALID,0,VALID,97.5721,VALID,0,VALID,19.7208,VALID,46,VALID,0,
2010-10-03, 02:20:05,VALID,914.472,VALID,0,VALID,97.5569,VALID,0,VALID,19.7013,VALID,46,VALID,0,
2010-10-03, 02:21:05,VALID,914.473,VALID,0,VALID,97.5721,VALID,0,VALID,19.6818,VALID,46,VALID,0,
2010-10-03, 02:22:05,VALID,914.45,VALID,0,VALID,97.5569,VALID,0,VALID,19.6623,VALID,46,VALID,0,
2010-10-03, 02:23:05,VALID,914.459,VALID,0,VALID,97.5416,VALID,0,VALID,19.6623,VALID,46,VALID,0.490625,
2010-10-03, 02:24:05,VALID,914.456,VALID,0,VALID,97.5721,VALID,0,VALID,19.6818,VALID,46,VALID,0.261328,
2010-10-03, 02:25:05,VALID,914.443,VALID,0,VALID,97.5721,VALID,0,VALID,19.6818,VALID,46,VALID,0,
2010-10-03, 02:26:05,VALID,914.417,VALID,0,VALID,97.5492,VALID,0,VALID,19.6428,VALID,46,VALID,0,
2010-10-03, 02:27:05,VALID,914.457,VALID,0,VALID,97.5569,VALID,0.107441,VALID,19.6038,VALID,46,VALID,0.923828,
2010-10-03, 02:28:05,VALID,914.434,VALID,0,VALID,97.5721,VALID,0.107441,VALID,19.6038,VALID,46,VALID,0.753125,
2010-10-03, 02:29:05,VALID,914.421,VALID,0,VALID,97.5797,VALID,0,VALID,19.6038,VALID,46,VALID,0.408203,
2010-10-03, 02:30:05,VALID,914.462,VALID,0,VALID,97.5873,VALID,0,VALID,19.6038,VALID,46,VALID,0.387109,
2010-10-03, 02:31:05,VALID,914.424,VALID,0,VALID,97.5797,VALID,0.107441,VALID,19.5843,VALID,46,VALID,0.522656,
2010-10-03, 02:32:05,VALID,914.469,VALID,0,VALID,97.5797,VALID,0,VALID,19.5648,VALID,46,VALID,0.704297,
2010-10-03, 02:33:05,VALID,914.442,VALID,0,VALID,97.5873,VALID,0,VALID,19.6053,VALID,46,VALID,0.00820312,
2010-10-03, 02:34:05,VALID,914.421,VALID,0,VALID,97.5645,VALID,0,VALID,19.5648,VALID,46,VALID,0.0359375,
2010-10-03, 02:35:05,VALID,914.432,VALID,0,VALID,97.5797,VALID,0,VALID,19.5843,VALID,46,VALID,0.445703,
2010-10-03, 02:36:05,VALID,914.435,VALID,0,VALID,97.5873,VALID,0,VALID,19.5453,VALID,21,VALID,0.919531,
2010-10-03, 02:37:05,VALID,914.411,VALID,0,VALID,97.5645,VALID,0,VALID,19.5258,VALID,12,VALID,0.483594,
2010-10-03, 02:38:05,VALID,914.413,VALID,0,VALID,97.5873,VALID,0,VALID,19.5063,VALID,12,VALID,0.674219,
2010-10-03, 02:39:05,VALID,914.415,VALID,0,VALID,97.5797,VALID,0,VALID,19.4868,VALID,12,VALID,0.552734,
2010-10-03, 02:40:05,VALID,914.375,VALID,0,VALID,97.6102,VALID,0.107441,VALID,19.4868,VALID,12,VALID,0.270703,
2010-10-03, 02:41:05,VALID,914.377,VALID,0,VALID,97.6026,VALID,0,VALID,19.4868,VALID,13,VALID,0.203906,
2010-10-03, 02:42:05,VALID,914.382,VALID,0,VALID,97.5721,VALID,0.107441,VALID,19.4868,VALID,12,VALID,0.400781,
2010-10-03, 02:43:05,VALID,914.363,VALID,0,VALID,97.5873,VALID,0,VALID,19.4868,VALID,12,VALID,0.48125,
2010-10-03, 02:44:05,VALID,914.37,VALID,0,VALID,97.6102,VALID,0,VALID,19.5063,VALID,12,VALID,0.435547,
2010-10-03, 02:45:05,VALID,914.359,VALID,0,VALID,97.5797,VALID,0,VALID,19.4868,VALID,13,VALID,0.333594,
2010-10-03, 02:46:05,VALID,914.337,VALID,0,VALID,97.595,VALID,0,VALID,19.4868,VALID,12,VALID,0,
2010-10-03, 02:47:05,VALID,914.345,VALID,0,VALID,97.6026,VALID,0,VALID,19.4868,VALID,12,VALID,0,
2010-10-03, 02:48:05,VALID,914.343,VALID,0,VALID,97.6026,VALID,0,VALID,19.4868,VALID,12,VALID,0,
2010-10-03, 02:49:05,VALID,914.363,VALID,0,VALID,97.595,VALID,0,VALID,19.4868,VALID,13,VALID,0,
2010-10-03, 02:50:05,VALID,914.364,VALID,0,VALID,97.6026,VALID,0,VALID,19.4868,VALID,12,VALID,0.480469,
2010-10-03, 02:51:05,VALID,914.353,VALID,0,VALID,97.6026,VALID,0,VALID,19.4478,VALID,13,VALID,0.433594,
2010-10-03, 02:52:05,VALID,914.332,VALID,0,VALID,97.595,VALID,0,VALID,19.4478,VALID,12,VALID,0,
2010-10-03, 02:53:05,VALID,914.348,VALID,0.2,VALID,97.6178,VALID,0,VALID,19.4478,VALID,12,VALID,0.462891,
2010-10-03, 02:54:05,VALID,914.336,VALID,0,VALID,97.5873,VALID,0,VALID,19.4283,VALID,13,VALID,0,
2010-10-03, 02:55:05,VALID,914.325,VALID,0,VALID,97.6026,VALID,0,VALID,19.4283,VALID,12,VALID,0,
2010-10-03, 02:56:05,VALID,914.323,VALID,0,VALID,97.6026,VALID,0,VALID,19.4088,VALID,13,VALID,0.667188,
2010-10-03, 02:57:05,VALID,914.338,VALID,0,VALID,97.6102,VALID,0.107441,VALID,19.4088,VALID,12,VALID,0.623047,
2010-10-03, 02:58:05,VALID,914.34,VALID,0,VALID,97.6102,VALID,0,VALID,19.3893,VALID,13,VALID,0.643359,
2010-10-03, 02:59:05,VALID,914.333,VALID,0,VALID,97.6102,VALID,0.107441,VALID,19.3893,VALID,13,VALID,0.998047,
2010-10-03, 03:00:05,VALID,914.33,VALID,0,VALID,97.6255,VALID,0.107441,VALID,19.3893,VALID,12,VALID,0.631641,
2010-10-03, 03:01:05,VALID,914.317,VALID,0,VALID,97.6178,VALID,0,VALID,19.3879,VALID,13,VALID,0.644531,
2010-10-03, 03:02:05,VALID,914.327,VALID,0,VALID,97.6178,VALID,0.107441,VALID,19.3879,VALID,12,VALID,0.78125,
2010-10-03, 03:03:05,VALID,914.266,VALID,0,VALID,97.6407,VALID,0.107441,VALID,19.3879,VALID,12,VALID,0.713281,
2010-10-03, 03:04:05,VALID,914.271,VALID,0,VALID,97.6102,VALID,0.107441,VALID,19.3879,VALID,12,VALID,0.574609,
2010-10-03, 03:05:05,VALID,914.278,VALID,0,VALID,97.6255,VALID,0,VALID,19.3684,VALID,12,VALID,0.822656,
2010-10-03, 03:06:05,VALID,914.237,VALID,0,VALID,97.6255,VALID,0,VALID,19.3489,VALID,12,VALID,0.694141,
2010-10-03, 03:07:05,VALID,914.219,VALID,0,VALID,97.6178,VALID,0.107441,VALID,19.3893,VALID,12,VALID,0.514844,
2010-10-03, 03:08:05,VALID,914.221,VALID,0,VALID,97.6255,VALID,0.107441,VALID,19.3684,VALID,12,VALID,0.895703,
2010-10-03, 03:09:05,VALID,914.213,VALID,0,VALID,97.6331,VALID,0.107441,VALID,19.3893,VALID,12,VALID,0.404687,
2010-10-03, 03:10:05,VALID,914.218,VALID,0,VALID,97.6255,VALID,0,VALID,19.3489,VALID,12,VALID,0.374609,
2010-10-03, 03:11:05,VALID,914.231,VALID,0,VALID,97.6178,VALID,0.107441,VALID,19.3684,VALID,12,VALID,0.276563,
2010-10-03, 03:12:05,VALID,914.239,VALID,0,VALID,97.6331,VALID,0,VALID,19.3908,VALID,12,VALID,0.649219,
2010-10-03, 03:13:05,VALID,914.248,VALID,0,VALID,97.6331,VALID,0,VALID,19.3713,VALID,13,VALID,0.465234,
2010-10-03, 03:14:05,VALID,914.233,VALID,0,VALID,97.6255,VALID,0,VALID,19.3518,VALID,12,VALID,0.885156,
2010-10-03, 03:15:05,VALID,914.242,VALID,0,VALID,97.6255,VALID,0,VALID,19.3323,VALID,12,VALID,0.711719,
2010-10-03, 03:16:05,VALID,914.241,VALID,0,VALID,97.6255,VALID,0,VALID,19.3323,VALID,15,VALID,1.37031,
2010-10-03, 03:17:05,VALID,914.248,VALID,0,VALID,97.6407,VALID,0,VALID,19.3323,VALID,20,VALID,0.581641,
2010-10-03, 03:18:05,VALID,914.237,VALID,0,VALID,97.6331,VALID,0,VALID,19.3323,VALID,19,VALID,0.610547,
2010-10-03, 03:19:05,VALID,914.229,VALID,0,VALID,97.6178,VALID,0,VALID,19.3323,VALID,19,VALID,0.623438,
2010-10-03, 03:20:05,VALID,914.211,VALID,0,VALID,97.6331,VALID,0,VALID,19.3128,VALID,19,VALID,0.990234,
2010-10-03, 03:21:05,VALID,914.229,VALID,0,VALID,97.6407,VALID,0,VALID,19.3323,VALID,19,VALID,0.494922,
2010-10-03, 03:22:05,VALID,914.178,VALID,0,VALID,97.6407,VALID,0,VALID,19.3128,VALID,20,VALID,0.944922,
2010-10-03, 03:23:05,VALID,914.208,VALID,0,VALID,97.6255,VALID,0,VALID,19.3128,VALID,19,VALID,0.821484,
2010-10-03, 03:24:05,VALID,914.19,VALID,0,VALID,97.6255,VALID,0,VALID,19.2723,VALID,19,VALID,0.575781,
2010-10-03, 03:25:05,VALID,914.207,VALID,0,VALID,97.6178,VALID,0,VALID,19.2933,VALID,19,VALID,0.584766,
2010-10-03, 03:26:05,VALID,914.202,VALID,0,VALID,97.6102,VALID,0,VALID,19.2723,VALID,19,VALID,0.7625,
2010-10-03, 03:27:05,VALID,914.209,VALID,0,VALID,97.6178,VALID,0,VALID,19.3113,VALID,19,VALID,0.5125,
2010-10-03, 03:28:05,VALID,914.181,VALID,0,VALID,97.6407,VALID,0.107441,VALID,19.3113,VALID,19,VALID,0.492969,
2010-10-03, 03:29:05,VALID,914.166,VALID,0,VALID,97.6407,VALID,0,VALID,19.3113,VALID,19,VALID,0.633984,
2010-10-03, 03:30:05,VALID,914.171,VALID,0,VALID,97.6331,VALID,0.107441,VALID,19.3099,VALID,19,VALID,0.99375,
2010-10-03, 03:31:05,VALID,914.128,VALID,0,VALID,97.6255,VALID,0.107441,VALID,19.3308,VALID,19,VALID,0.725,
2010-10-03, 03:32:05,VALID,914.168,VALID,0,VALID,97.6407,VALID,0.107441,VALID,19.3113,VALID,18,VALID,0.483984,
2010-10-03, 03:33:05,VALID,914.154,VALID,0,VALID,97.6407,VALID,0.107441,VALID,19.3308,VALID,18,VALID,0.258594,
2010-10-03, 03:34:05,VALID,914.171,VALID,0,VALID,97.6407,VALID,0,VALID,19.3308,VALID,18,VALID,0.296875,
2010-10-03, 03:35:05,VALID,914.155,VALID,0,VALID,97.6483,VALID,0,VALID,19.3308,VALID,18,VALID,0.548828,
2010-10-03, 03:36:05,VALID,914.183,VALID,0,VALID,97.6407,VALID,0.107441,VALID,19.3308,VALID,18,VALID,0.353906,
2010-10-03, 03:37:05,VALID,914.177,VALID,0,VALID,97.6255,VALID,0,VALID,19.3113,VALID,6,VALID,0.566406,
2010-10-03, 03:38:05,VALID,914.16,VALID,0,VALID,97.6331,VALID,0.107441,VALID,19.3113,VALID,6,VALID,0.603125,
2010-10-03, 03:39:05,VALID,914.155,VALID,0,VALID,97.6331,VALID,0.107441,VALID,19.3308,VALID,6,VALID,0.319531,
2010-10-03, 03:40:05,VALID,914.162,VALID,0,VALID,97.6407,VALID,0,VALID,19.3503,VALID,6,VALID,0.484766,
2010-10-03, 03:41:05,VALID,914.142,VALID,0,VALID,97.6331,VALID,0.107441,VALID,19.3503,VALID,6,VALID,0.360156,
2010-10-03, 03:42:05,VALID,914.147,VALID,0,VALID,97.6178,VALID,0,VALID,19.3503,VALID,6,VALID,0.385547,
2010-10-03, 03:43:05,VALID,914.139,VALID,0,VALID,97.6407,VALID,0.107441,VALID,19.3503,VALID,6,VALID,0.34375,
2010-10-03, 03:44:05,VALID,914.146,VALID,0,VALID,97.6331,VALID,0,VALID,19.3503,VALID,6,VALID,0.00664063,
2010-10-03, 03:45:05,VALID,914.074,VALID,0,VALID,97.6483,VALID,0,VALID,19.3503,VALID,6,VALID,0,